カタログに戻る

COSMOS 2098

運用中軍事PO
NORAD 20774·PAYLOAD·🇷🇺 Russia

打ち上げ Aug 28, 1990 から Plesetsk Cosmodrome

Loading…

次のパス (今後24時間)

TLE

最新Source: Space-Track

元期: Sep 14, 2026, 14:09 UTC

1 20774U 90078A   26257.58971491  .00001726  00000-0  12157-3 0  9995
2 20774  82.9430  12.1132 0740863 321.7624  33.3123 13.90655536784941

AllMySatでCOSMOS 2098をリアルタイム追跡

Download on the App Store